This is the latest recevied weather packets stored in our database for station/object KE8WAY. If no packets are shown the sender has not sent any weather packets the latest 10 day(s).
| Time | Temp. | Humidity | Pressure | Rain* | Wind** | Luminosity | Snow |
|---|---|---|---|---|---|---|---|
| 1777180173 | 9.44° C | 88% | 1017 hPa | 0 mm | - | 0 W/m² | - |
| 1777179868 | 9.44° C | 88% | 1017.2 hPa | 0 mm | - | 0 W/m² | - |
| 1777179565 | 9.44° C | 87% | 1017.1 hPa | 0 mm | - | 0 W/m² | - |
| 1777179264 | 8.89° C | 87% | 1016.9 hPa | 0 mm | - | 0 W/m² | - |
| 1777178959 | 8.89° C | 90% | 1017 hPa | 0 mm | - | 0 W/m² | - |
| 1777178658 | 8.89° C | 90% | 1017 hPa | 0 mm | - | 0 W/m² | - |
| 1777178353 | 8.89° C | 90% | 1017.1 hPa | 0 mm | - | 0 W/m² | - |
| 1777178048 | 8.89° C | 91% | 1017.1 hPa | 0 mm | - | 0 W/m² | - |
| 1777177746 | 9.44° C | 89% | 1017 hPa | 0 mm | - | 0 W/m² | - |
| 1777177443 | 9.44° C | 86% | 1017.3 hPa | 0 mm | - | 0 W/m² | - |
| 1777177139 | 9.44° C | 88% | 1017.2 hPa | 0 mm | - | 0 W/m² | - |
| 1777176836 | 9.44° C | 88% | 1017.3 hPa | 0 mm | - | 0 W/m² | - |
| 1777176532 | 9.44° C | 88% | 1017.2 hPa | 0 mm | - | 0 W/m² | - |
| 1777176228 | 9.44° C | 88% | 1017 hPa | 0 mm | - | 0 W/m² | - |
| 1777175927 | 9.44° C | 88% | 1017 hPa | 0 mm | - | 0 W/m² | - |
| 1777175622 | 9.44° C | 88% | 1017.2 hPa | 0 mm | - | 0 W/m² | - |
| 1777175317 | 9.44° C | 87% | 1017.1 hPa | 0 mm | - | 0 W/m² | - |
| 1777175013 | 10° C | 85% | 1017.3 hPa | 0 mm | - | 0 W/m² | - |
| 1777174709 | 10° C | 83% | 1016.9 hPa | 0 mm | - | 0 W/m² | - |
| 1777174404 | 10° C | 83% | 1017.1 hPa | 0 mm | - | 0 W/m² | - |
| 1777174099 | 10° C | 82% | 1017.1 hPa | 0 mm | - | 0 W/m² | - |
| 1777173796 | 10° C | 81% | 1017.1 hPa | 0 mm | - | 0 W/m² | - |
| 1777173496 | 10° C | 81% | 1017 hPa | 0 mm | - | 0 W/m² | - |
| 1777173191 | 10° C | 81% | 1017.1 hPa | 0 mm | - | 0 W/m² | - |
| 1777172889 | 10° C | 81% | 1017.1 hPa | 0 mm | - | 0 W/m² | - |
* Rain latest hour (hover to see other rain measurements)
** Current wind speed in m/s (hover to see current wind gust speed)